sat.trackr.live / text

‹ back to catalog

STARLINK-32613

NORAD 61970 · 2024-210M

PAYLOAD ACTIVE UNKNOWN

§ Identity

Operator
Country
US
Launch date
2024-11-14
Launch site
AFETR
Launch vehicle
Mass (kg)
RCS (m²)

Purposes: comms

External: N2YO · Heavens-Above · Gunter

§ Orbital elements

Epoch: 2026-05-25T04:12:23.577696Z

Period
94.27 min
Inclination
42.9995°
Eccentricity
0.0001271
Mean motion
15.27589391 rev/d
Perigee alt
482.1 km
Apogee alt
483.9 km
Semi-major
6,861.2 km
B*
6.1077e-4
RAAN
108.1960°
Arg perigee
269.3951°
Mean anomaly
90.6755°
Rev number
8,661

§ Raw data

STARLINK-326131 61970U 24210M   26145.17527289  .00016588  00000+0  61077-3 0  99922 61970  42.9995 108.1960 0001271 269.3951  90.6755 15.27589391 86617

JSON: /api/v1/satellites/61970 · /tle

For live sub-satellite position, see the globe view (requires WebGL).

§ Visibility from observer

Set your observer location to see the next 7 days of passes ≥ 10°. The values pass through the URL so the page stays shareable.

No JS? Fill the form by hand. The geolocation button needs JavaScript.